| time (UTC) | temp C | wind direction | speed KPH | gust KPH | rain 1hr cm | rain 24hr cm | rain mn cm | humidity % | barometer mb |
| 20260507065831 | 9 | 21 | 3.2 | 8.0 | 0.00 | 0.03 | 0.00 | 79 | 1015.1 |
| 20260507065627 | 9 | 10 | 4.8 | 8.0 | 0.00 | 0.03 | 0.00 | 80 | 1015.2 |
| 20260507064830 | 9 | 7 | 4.8 | 9.7 | 0.00 | 0.03 | 0.00 | 80 | 1015.1 |
| 20260507064331 | 9 | 20 | 4.8 | 9.7 | 0.00 | 0.03 | 0.00 | 80 | 1015.1 |
| 20260507063831 | 9 | 13 | 4.8 | 9.7 | 0.00 | 0.03 | 0.00 | 80 | 1015.2 |
| 20260507063331 | 8 | 25 | 6.4 | 9.7 | 0.00 | 0.03 | 0.00 | 80 | 1015.1 |
| 20260507062830 | 9 | 27 | 4.8 | 9.7 | 0.00 | 0.03 | 0.00 | 80 | 1015.1 |
| 20260507062331 | 8 | 14 | 4.8 | 8.0 | 0.00 | 0.03 | 0.00 | 80 | 1015.1 |
| 20260507061831 | 8 | 4 | 4.8 | 9.7 | 0.00 | 0.03 | 0.00 | 80 | 1014.9 |
| 20260507061330 | 8 | 10 | 6.4 | 9.7 | 0.00 | 0.03 | 0.00 | 80 | 1015.0 |
| 20260507060830 | 8 | 28 | 4.8 | 16.1 | 0.00 | 0.03 | 0.00 | 81 | 1014.9 |
| 20260507060330 | 8 | 17 | 6.4 | 16.1 | 0.00 | 0.03 | 0.00 | 81 | 1014.9 |
| 20260507055831 | 8 | 4 | 8.0 | 14.5 | 0.00 | 0.03 | 0.00 | 81 | 1014.9 |
| 20260507055330 | 8 | 16 | 6.4 | 11.3 | 0.00 | 0.03 | 0.00 | 82 | 1014.9 |
| 20260507055115 | 8 | 24 | 4.8 | 9.7 | 0.00 | 0.03 | 0.00 | 82 | 1014.7 |
| 20260507054330 | 8 | 38 | 4.8 | 8.0 | 0.00 | 0.03 | 0.00 | 81 | 1014.7 |
| 20260507054119 | 8 | 23 | 3.2 | 8.0 | 0.00 | 0.03 | 0.00 | 83 | 1014.8 |
| 20260507053330 | 8 | 24 | 3.2 | 8.0 | 0.00 | 0.03 | 0.00 | 82 | 1014.8 |
| 20260507052831 | 8 | 7 | 4.8 | 8.0 | 0.00 | 0.03 | 0.00 | 83 | 1014.7 |
| 20260507052615 | 8 | 13 | 3.2 | 8.0 | 0.00 | 0.03 | 0.00 | 82 | 1014.7 |
| 20260507051830 | 8 | 16 | 4.8 | 8.0 | 0.00 | 0.03 | 0.00 | 82 | 1014.6 |
| 20260507051330 | 8 | 30 | 3.2 | 8.0 | 0.00 | 0.03 | 0.00 | 81 | 1014.6 |
| 20260507050830 | 8 | 54 | 3.2 | 8.0 | 0.00 | 0.03 | 0.00 | 82 | 1014.6 |
| 20260507050622 | 8 | 25 | 3.2 | 8.0 | 0.00 | 0.03 | 0.00 | 82 | 1014.5 |
| 20260507045830 | 8 | 28 | 4.8 | 8.0 | 0.00 | 0.03 | 0.00 | 82 | 1014.4 |
| 20260507045644 | 8 | 16 | 4.8 | 9.7 | 0.00 | 0.03 | 0.00 | 82 | 1014.4 |
| 20260507045122 | 8 | 18 | 4.8 | 9.7 | 0.00 | 0.03 | 0.00 | 81 | 1014.4 |
| 20260507044331 | 8 | 20 | 3.2 | 6.4 | 0.00 | 0.03 | 0.00 | 81 | 1014.3 |
| 20260507044118 | 8 | 7 | 4.8 | 8.0 | 0.00 | 0.03 | 0.00 | 81 | 1014.2 |
| 20260507043622 | 8 | 11 | 4.8 | 8.0 | 0.00 | 0.03 | 0.00 | 81 | 1014.2 |
| 20260507042829 | 8 | 51 | 6.4 | 8.0 | 0.00 | 0.03 | 0.00 | 81 | 1014.2 |
| 20260507042331 | 8 | 11 | 3.2 | 9.7 | 0.00 | 0.03 | 0.00 | 81 | 1014.1 |
| 20260507041830 | 8 | 23 | 3.2 | 9.7 | 0.00 | 0.03 | 0.00 | 81 | 1014.0 |
| 20260507041618 | 8 | 25 | 3.2 | 6.4 | 0.00 | 0.03 | 0.00 | 82 | 1014.0 |
| 20260507040829 | 8 | 13 | 1.6 | 6.4 | 0.00 | 0.03 | 0.00 | 82 | 1013.9 |
| 20260507040330 | 9 | 13 | 3.2 | 8.0 | 0.00 | 0.03 | 0.00 | 82 | 1013.9 |
| 20260507035830 | 9 | 18 | 3.2 | 8.0 | 0.00 | 0.03 | 0.00 | 82 | 1013.8 |
| 20260507035331 | 9 | 0 | 4.8 | 8.0 | 0.00 | 0.03 | 0.00 | 81 | 1013.8 |
| 20260507034832 | 9 | 35 | 3.2 | 8.0 | 0.00 | 0.03 | 0.00 | 81 | 1013.8 |
| 20260507034641 | 9 | 37 | 3.2 | 8.0 | 0.00 | 0.03 | 0.00 | 81 | 1013.7 |
| 20260507033830 | 9 | 28 | 3.2 | 8.0 | 0.00 | 0.03 | 0.00 | 81 | 1013.7 |
| 20260507033438 | 9 | 16 | 3.2 | 6.4 | 0.00 | 0.03 | 0.00 | 81 | 1013.7 |
| 20260507033400 | 9 | 30 | 3.2 | 8.0 | 0.00 | 0.03 | 0.00 | 81 | 1013.7 |
| 20260507032346 | 9 | 27 | 3.2 | 6.4 | 0.00 | 0.03 | 0.00 | 81 | 1013.7 |
| 20260507031830 | 9 | 21 | 3.2 | 4.8 | 0.00 | 0.05 | 0.00 | 81 | 1013.7 |
| 20260507031632 | 9 | 0 | 3.2 | 4.8 | 0.00 | 0.05 | 0.00 | 81 | 1013.7 |
| 20260507030830 | 9 | 41 | 0.0 | 0.0 | 0.00 | 0.05 | 0.00 | 82 | 1013.6 |
| 20260507030330 | 9 | 41 | 0.0 | 0.0 | 0.00 | 0.05 | 0.00 | 81 | 1013.7 |
| 20260507025830 | 9 | 44 | 0.0 | 0.0 | 0.00 | 0.05 | 0.00 | 82 | 1013.6 |
| 20260507025330 | 9 | 45 | 0.0 | 0.0 | 0.00 | 0.05 | 0.00 | 82 | 1013.6 |
| 20260507025121 | 10 | 44 | 0.0 | 0.0 | 0.00 | 0.05 | 0.00 | 82 | 1013.5 |
| 20260507024331 | 10 | 45 | 0.0 | 0.0 | 0.00 | 0.05 | 0.00 | 82 | 1013.6 |
| 20260507023837 | 10 | 32 | 0.0 | 1.6 | 0.00 | 0.05 | 0.00 | 81 | 1013.5 |
| 20260507023624 | 10 | 31 | 0.0 | 4.8 | 0.00 | 0.05 | 0.00 | 82 | 1013.4 |
| 20260507023130 | 10 | 30 | 3.2 | 4.8 | 0.00 | 0.05 | 0.00 | 81 | 1013.4 |
| 20260507022330 | 10 | 27 | 1.6 | 4.8 | 0.00 | 0.05 | 0.00 | 81 | 1013.4 |
| 20260507022140 | 10 | 27 | 0.0 | 4.8 | 0.00 | 0.05 | 0.00 | 81 | 1013.4 |
| 20260507021330 | 10 | 14 | 0.0 | 4.8 | 0.00 | 0.05 | 0.00 | 82 | 1013.2 |
| 20260507020831 | 10 | 13 | 3.2 | 4.8 | 0.00 | 0.05 | 0.00 | 82 | 1013.2 |
| 20260507020330 | 10 | 13 | 0.0 | 0.0 | 0.00 | 0.05 | 0.00 | 81 | 1013.2 |
| 20260507020129 | 10 | 11 | 0.0 | 4.8 | 0.00 | 0.05 | 0.00 | 81 | 1013.1 |
| 20260507015330 | 10 | 13 | 1.6 | 6.4 | 0.00 | 0.05 | 0.00 | 81 | 1013.1 |
| 20260507014829 | 10 | 11 | 1.6 | 6.4 | 0.00 | 0.05 | 0.00 | 80 | 1013.0 |
| 20260507014330 | 10 | 18 | 3.2 | 8.0 | 0.00 | 0.05 | 0.00 | 80 | 1013.0 |
| 20260507013830 | 10 | 17 | 3.2 | 8.0 | 0.00 | 0.05 | 0.00 | 80 | 1013.0 |
| 20260507013330 | 10 | 17 | 4.8 | 6.4 | 0.00 | 0.05 | 0.00 | 80 | 1013.0 |
| 20260507012830 | 10 | 343 | 1.6 | 4.8 | 0.00 | 0.05 | 0.00 | 80 | 1013.0 |
| 20260507012331 | 10 | 8 | 1.6 | 3.2 | 0.00 | 0.05 | 0.00 | 79 | 1013.0 |
| 20260507012207 | 10 | 10 | 0.0 | 0.0 | 0.00 | 0.05 | 0.00 | 79 | 1013.0 |
| 20260507011331 | 10 | 10 | 0.0 | 0.0 | 0.00 | 0.05 | 0.00 | 78 | 1012.9 |
| 20260507010831 | 10 | 11 | 0.0 | 0.0 | 0.00 | 0.05 | 0.00 | 78 | 1013.0 |
| 20260507010330 | 10 | 11 | 0.0 | 0.0 | 0.00 | 0.05 | 0.00 | 78 | 1012.9 |
| 20260507010134 | 10 | 11 | 0.0 | 0.0 | 0.00 | 0.05 | 0.00 | 78 | 1012.9 |
| 20260507005332 | 10 | 11 | 0.0 | 0.0 | 0.00 | 0.05 | 0.00 | 77 | 1013.0 |
| 20260507004831 | 10 | 11 | 0.0 | 0.0 | 0.00 | 0.05 | 0.00 | 77 | 1013.0 |
| 20260507004330 | 10 | 11 | 0.0 | 0.0 | 0.00 | 0.05 | 0.00 | 76 | 1012.9 |
| 20260507003833 | 10 | 11 | 0.0 | 0.0 | 0.00 | 0.05 | 0.00 | 77 | 1012.9 |
| 20260507003331 | 10 | 11 | 0.0 | 0.0 | 0.00 | 0.05 | 0.00 | 77 | 1012.9 |
| 20260507002829 | 10 | 11 | 0.0 | 0.0 | 0.00 | 0.05 | 0.00 | 77 | 1012.8 |
| 20260507002330 | 10 | 13 | 0.0 | 0.0 | 0.00 | 0.05 | 0.00 | 77 | 1012.8 |
| 20260507001831 | 10 | 13 | 0.0 | 0.0 | 0.00 | 0.05 | 0.00 | 77 | 1012.7 |
| 20260507001331 | 10 | 13 | 0.0 | 0.0 | 0.00 | 0.05 | 0.00 | 77 | 1012.8 |
| 20260507000830 | 10 | 13 | 0.0 | 0.0 | 0.00 | 0.05 | 0.00 | 76 | 1012.8 |
| 20260507000331 | 10 | 13 | 0.0 | 0.0 | 0.00 | 0.05 | 0.00 | 76 | 1012.8 |
| 20260506235831 | 10 | 13 | 0.0 | 0.0 | 0.00 | 0.05 | 0.00 | 76 | 1012.8 |
| 20260506235331 | 10 | 13 | 0.0 | 0.0 | 0.00 | 0.05 | 0.00 | 75 | 1012.8 |
| 20260506235141 | 10 | 13 | 0.0 | 1.6 | 0.00 | 0.05 | 0.00 | 76 | 1012.7 |
| 20260506234330 | 10 | 14 | 0.0 | 1.6 | 0.00 | 0.05 | 0.00 | 75 | 1012.8 |
| 20260506234133 | 10 | 14 | 0.0 | 0.0 | 0.00 | 0.05 | 0.00 | 75 | 1012.7 |
| 20260506233329 | 10 | 14 | 0.0 | 0.0 | 0.00 | 0.05 | 0.00 | 75 | 1012.7 |
| 20260506233147 | 10 | 14 | 0.0 | 4.8 | 0.00 | 0.05 | 0.00 | 74 | 1012.7 |
| 20260506232329 | 10 | 14 | 1.6 | 4.8 | 0.00 | 0.05 | 0.00 | 74 | 1012.5 |
| 20260506231831 | 10 | 14 | 3.2 | 4.8 | 0.00 | 0.05 | 0.00 | 73 | 1012.7 |
| 20260506231329 | 10 | 16 | 3.2 | 4.8 | 0.00 | 0.05 | 0.00 | 72 | 1012.7 |
| 20260506230830 | 10 | 16 | 1.6 | 8.0 | 0.00 | 0.05 | 0.00 | 72 | 1012.6 |
| 20260506230330 | 10 | 11 | 4.8 | 9.7 | 0.00 | 0.05 | 0.00 | 72 | 1012.6 |
| 20260506225829 | 10 | 13 | 4.8 | 9.7 | 0.00 | 0.05 | 0.00 | 72 | 1012.5 |
| 20260506225329 | 10 | 17 | 4.8 | 9.7 | 0.00 | 0.05 | 0.00 | 72 | 1012.5 |
| 20260506224827 | 10 | 16 | 4.8 | 8.0 | 0.00 | 0.05 | 0.00 | 72 | 1012.5 |
| 20260506224330 | 10 | 341 | 3.2 | 8.0 | 0.00 | 0.05 | 0.00 | 72 | 1012.5 |
| 20260506223828 | 10 | 10 | 3.2 | 9.7 | 0.00 | 0.05 | 0.00 | 72 | 1012.5 |
| 20260506223330 | 10 | 6 | 6.4 | 9.7 | 0.00 | 0.05 | 0.00 | 73 | 1012.5 |
| 20260506223118 | 10 | 17 | 4.8 | 9.7 | 0.00 | 0.05 | 0.00 | 74 | 1012.4 |
| 20260506222329 | 10 | 13 | 4.8 | 8.0 | 0.00 | 0.05 | 0.00 | 74 | 1012.4 |
| 20260506221828 | 10 | 17 | 4.8 | 8.0 | 0.00 | 0.05 | 0.00 | 74 | 1012.5 |
| 20260506221348 | 10 | 13 | 4.8 | 8.0 | 0.00 | 0.05 | 0.00 | 75 | 1012.4 |
| 20260506220827 | 10 | 20 | 4.8 | 8.0 | 0.00 | 0.05 | 0.00 | 76 | 1012.4 |
| 20260506220327 | 10 | 20 | 4.8 | 6.4 | 0.00 | 0.05 | 0.00 | 76 | 1012.4 |
| 20260506215826 | 10 | 21 | 3.2 | 6.4 | 0.00 | 0.05 | 0.05 | 76 | 1012.4 |
| 20260506215329 | 10 | 23 | 4.8 | 6.4 | 0.00 | 0.05 | 0.05 | 75 | 1012.3 |
| 20260506215116 | 10 | 20 | 3.2 | 6.4 | 0.00 | 0.05 | 0.05 | 75 | 1012.3 |
| 20260506214327 | 10 | 20 | 4.8 | 6.4 | 0.00 | 0.05 | 0.05 | 75 | 1012.4 |
| 20260506213828 | 10 | 17 | 4.8 | 8.0 | 0.00 | 0.05 | 0.05 | 75 | 1012.3 |
| 20260506213327 | 10 | 18 | 4.8 | 8.0 | 0.00 | 0.05 | 0.05 | 75 | 1012.3 |
| 20260506212826 | 10 | 20 | 4.8 | 6.4 | 0.00 | 0.05 | 0.05 | 75 | 1012.3 |
| 20260506212326 | 10 | 24 | 3.2 | 6.4 | 0.00 | 0.05 | 0.05 | 75 | 1012.2 |
| 20260506211826 | 10 | 21 | 4.8 | 6.4 | 0.00 | 0.05 | 0.05 | 74 | 1012.2 |
| 20260506211326 | 10 | 14 | 3.2 | 6.4 | 0.00 | 0.05 | 0.05 | 75 | 1012.2 |
| 20260506210826 | 10 | 21 | 4.8 | 6.4 | 0.00 | 0.05 | 0.05 | 76 | 1012.1 |
| 20260506210325 | 10 | 23 | 0.0 | 0.0 | 0.00 | 0.05 | 0.05 | 76 | 1012.0 |
| 20260506205826 | 10 | 23 | 0.0 | 0.0 | 0.00 | 0.05 | 0.05 | 76 | 1012.1 |
| 20260506205327 | 10 | 23 | 0.0 | 0.0 | 0.00 | 0.05 | 0.05 | 74 | 1012.0 |
| 20260506204825 | 10 | 39 | 0.0 | 0.0 | 0.00 | 0.05 | 0.05 | 74 | 1012.0 |
| 20260506204617 | 10 | 39 | 0.0 | 0.0 | 0.00 | 0.05 | 0.05 | 74 | 1012.0 |
| 20260506204113 | 10 | 39 | 0.0 | 0.0 | 0.00 | 0.05 | 0.05 | 73 | 1012.0 |
| 20260506203325 | 10 | 39 | 0.0 | 0.0 | 0.00 | 0.05 | 0.05 | 74 | 1012.0 |
| 20260506202826 | 10 | 39 | 0.0 | 0.0 | 0.00 | 0.05 | 0.05 | 74 | 1011.9 |
| 20260506202618 | 10 | 39 | 0.0 | 0.0 | 0.00 | 0.05 | 0.05 | 73 | 1011.8 |
| 20260506202119 | 10 | 39 | 0.0 | 0.0 | 0.00 | 0.05 | 0.05 | 73 | 1011.9 |
| 20260506201340 | 10 | 39 | 0.0 | 1.6 | 0.00 | 0.05 | 0.05 | 72 | 1011.8 |
| 20260506200824 | 10 | 24 | 0.0 | 6.4 | 0.00 | 0.05 | 0.05 | 73 | 1011.8 |
| 20260506200339 | 10 | 16 | 3.2 | 6.4 | 0.00 | 0.05 | 0.05 | 72 | 1011.7 |
| 20260506195831 | 10 | 16 | 0.0 | 3.2 | 0.00 | 0.05 | 0.05 | 73 | 1011.7 |
| 20260506195327 | 11 | 13 | 0.0 | 3.2 | 0.00 | 0.05 | 0.05 | 73 | 1011.7 |
| 20260506194825 | 11 | 49 | 1.6 | 6.4 | 0.00 | 0.05 | 0.05 | 71 | 1011.8 |
| 20260506194324 | 11 | 52 | 3.2 | 8.0 | 0.00 | 0.05 | 0.05 | 70 | 1011.6 |
| 20260506194144 | 11 | 45 | 4.8 | 8.0 | 0.00 | 0.05 | 0.05 | 70 | 1011.6 |
| 20260506193323 | 11 | 56 | 3.2 | 11.3 | 0.00 | 0.05 | 0.05 | 70 | 1011.5 |
| 20260506193134 | 11 | 44 | 6.4 | 11.3 | 0.00 | 0.05 | 0.05 | 70 | 1011.5 |
| 20260506192323 | 11 | 44 | 3.2 | 8.0 | 0.00 | 0.05 | 0.05 | 71 | 1011.5 |
| 20260506191823 | 11 | 48 | 3.2 | 8.0 | 0.00 | 0.05 | 0.05 | 71 | 1011.5 |
| 20260506191324 | 11 | 42 | 4.8 | 11.3 | 0.00 | 0.05 | 0.05 | 70 | 1011.4 |
| 20260506190825 | 11 | 21 | 6.4 | 11.3 | 0.00 | 0.05 | 0.05 | 71 | 1011.3 |
| 20260506190323 | 11 | 58 | 4.8 | 11.3 | 0.00 | 0.05 | 0.05 | 71 | 1011.2 |
| 20260506185823 | 11 | 49 | 4.8 | 11.3 | 0.00 | 0.05 | 0.05 | 70 | 1011.2 |
| 20260506185323 | 11 | 48 | 8.0 | 11.3 | 0.00 | 0.05 | 0.05 | 70 | 1011.1 |
| 20260506185115 | 11 | 56 | 6.4 | 9.7 | 0.00 | 0.05 | 0.05 | 70 | 1010.9 |
| 20260506184617 | 11 | 49 | 4.8 | 11.3 | 0.00 | 0.05 | 0.05 | 70 | 1011.0 |
| 20260506184135 | 11 | 47 | 6.4 | 11.3 | 0.00 | 0.05 | 0.05 | 70 | 1011.0 |
| 20260506183322 | 11 | 48 | 4.8 | 11.3 | 0.00 | 0.05 | 0.05 | 70 | 1011.0 |
| 20260506182823 | 11 | 42 | 4.8 | 11.3 | 0.00 | 0.05 | 0.05 | 72 | 1010.8 |
| 20260506182332 | 11 | 28 | 4.8 | 11.3 | 0.00 | 0.05 | 0.05 | 71 | 1010.8 |
| 20260506181821 | 11 | 35 | 4.8 | 9.7 | 0.00 | 0.05 | 0.05 | 72 | 1010.9 |
| 20260506181331 | 11 | 30 | 4.8 | 9.7 | 0.00 | 0.05 | 0.05 | 71 | 1010.7 |
| 20260506180821 | 11 | 52 | 6.4 | 14.5 | 0.00 | 0.05 | 0.05 | 71 | 1010.7 |
| 20260506180322 | 11 | 52 | 6.4 | 16.1 | 0.00 | 0.05 | 0.05 | 72 | 1010.6 |
| 20260506175822 | 11 | 30 | 8.0 | 16.1 | 0.00 | 0.05 | 0.05 | 72 | 1010.6 |
| 20260506175322 | 11 | 39 | 6.4 | 11.3 | 0.00 | 0.05 | 0.05 | 72 | 1010.5 |
| 20260506175029 | 11 | 38 | 6.4 | 17.7 | 0.00 | 0.05 | 0.05 | 72 | 1010.3 |
| 20260506174938 | 11 | 34 | 6.4 | 11.3 | 0.00 | 0.05 | 0.05 | 73 | 1010.4 |
| 20260506174407 | 11 | 54 | 6.4 | 17.7 | 0.00 | 0.05 | 0.05 | 73 | 1010.3 |
| 20260506173319 | 11 | 51 | 8.0 | 17.7 | 0.00 | 0.05 | 0.05 | 73 | 1010.2 |
| 20260506172820 | 11 | 32 | 6.4 | 17.7 | 0.00 | 0.05 | 0.05 | 73 | 1010.2 |
| 20260506172321 | 11 | 42 | 8.0 | 14.5 | 0.00 | 0.05 | 0.05 | 73 | 1010.2 |
| 20260506171819 | 11 | 51 | 6.4 | 20.9 | 0.00 | 0.05 | 0.05 | 74 | 1010.2 |
| 20260506171320 | 11 | 69 | 8.0 | 22.5 | 0.00 | 0.05 | 0.05 | 73 | 1010.1 |
| 20260506170821 | 11 | 38 | 11.3 | 24.1 | 0.00 | 0.05 | 0.05 | 73 | 1010.1 |
| 20260506170319 | 11 | 82 | 12.9 | 27.4 | 0.00 | 0.05 | 0.05 | 72 | 1010.1 |
| 20260506165821 | 11 | 8 | 14.5 | 27.4 | 0.00 | 0.05 | 0.05 | 71 | 1010.1 |
| 20260506165321 | 11 | 69 | 14.5 | 20.9 | 0.00 | 0.05 | 0.05 | 70 | 1010.0 |
| 20260506164819 | 11 | 37 | 9.7 | 19.3 | 0.00 | 0.05 | 0.05 | 69 | 1010.1 |
| 20260506164320 | 11 | 35 | 9.7 | 22.5 | 0.00 | 0.05 | 0.05 | 70 | 1009.9 |
| 20260506163820 | 11 | 28 | 11.3 | 22.5 | 0.00 | 0.05 | 0.05 | 69 | 1009.7 |
| 20260506163321 | 12 | 41 | 8.0 | 20.9 | 0.00 | 0.05 | 0.05 | 68 | 1009.8 |
| 20260506162819 | 12 | 6 | 9.7 | 17.7 | 0.00 | 0.05 | 0.05 | 66 | 1009.8 |
| 20260506162332 | 12 | 24 | 8.0 | 17.7 | 0.00 | 0.05 | 0.05 | 66 | 1009.7 |
| 20260506162146 | 12 | 59 | 9.7 | 17.7 | 0.00 | 0.05 | 0.05 | 65 | 1009.7 |
| 20260506161318 | 12 | 54 | 9.7 | 17.7 | 0.00 | 0.05 | 0.05 | 65 | 1009.8 |
| 20260506160836 | 12 | 47 | 9.7 | 17.7 | 0.00 | 0.05 | 0.05 | 67 | 1009.7 |
| 20260506160628 | 12 | 39 | 8.0 | 19.3 | 0.00 | 0.05 | 0.05 | 66 | 1009.8 |
| 20260506155819 | 12 | 35 | 11.3 | 20.9 | 0.00 | 0.05 | 0.05 | 64 | 1009.8 |
| 20260506155318 | 12 | 47 | 9.7 | 20.9 | 0.00 | 0.05 | 0.05 | 64 | 1009.7 |
| 20260506154820 | 12 | 39 | 12.9 | 22.5 | 0.00 | 0.05 | 0.05 | 63 | 1009.8 |
| 20260506154649 | 12 | 47 | 12.9 | 22.5 | 0.00 | 0.05 | 0.05 | 63 | 1009.8 |
| 20260506153818 | 12 | 24 | 11.3 | 25.7 | 0.00 | 0.05 | 0.05 | 63 | 1009.7 |
| 20260506153318 | 12 | 48 | 16.1 | 25.7 | 0.00 | 0.05 | 0.05 | 63 | 1009.6 |
| 20260506152817 | 12 | 25 | 12.9 | 24.1 | 0.00 | 0.05 | 0.05 | 63 | 1009.6 |
| 20260506152317 | 12 | 31 | 11.3 | 24.1 | 0.00 | 0.05 | 0.05 | 62 | 1009.6 |
| 20260506151817 | 12 | 24 | 14.5 | 24.1 | 0.00 | 0.05 | 0.05 | 62 | 1009.6 |
| 20260506151317 | 12 | 34 | 12.9 | 20.9 | 0.00 | 0.05 | 0.05 | 61 | 1009.5 |
| 20260506151104 | 12 | 27 | 11.3 | 20.9 | 0.00 | 0.05 | 0.05 | 62 | 1009.6 |
| 20260506150315 | 13 | 34 | 9.7 | 24.1 | 0.00 | 0.05 | 0.05 | 60 | 1009.4 |
| 20260506145925 | 13 | 45 | 14.5 | 27.4 | 0.00 | 0.05 | 0.05 | 58 | 1009.4 |
| 20260506145905 | 13 | 45 | 9.7 | 27.4 | 0.00 | 0.05 | 0.05 | 60 | 1009.5 |
| 20260506144815 | 13 | 34 | 11.3 | 25.7 | 0.00 | 0.05 | 0.05 | 59 | 1009.4 |
| 20260506144316 | 13 | 24 | 9.7 | 25.7 | 0.00 | 0.05 | 0.05 | 59 | 1009.3 |
| 20260506143818 | 13 | 47 | 12.9 | 24.1 | 0.00 | 0.05 | 0.05 | 58 | 1009.3 |
| 20260506143331 | 13 | 39 | 9.7 | 22.5 | 0.00 | 0.05 | 0.05 | 58 | 1009.4 |
| 20260506142832 | 13 | 35 | 9.7 | 22.5 | 0.00 | 0.05 | 0.05 | 63 | 1009.2 |
| 20260506142315 | 13 | 24 | 6.4 | 19.3 | 0.00 | 0.05 | 0.05 | 63 | 1009.3 |
| 20260506141815 | 13 | 13 | 9.7 | 19.3 | 0.00 | 0.05 | 0.05 | 62 | 1009.2 |
| 20260506141317 | 13 | 45 | 11.3 | 20.9 | 0.00 | 0.05 | 0.05 | 63 | 1009.2 |
| 20260506140816 | 13 | 52 | 9.7 | 22.5 | 0.00 | 0.05 | 0.05 | 65 | 1009.2 |
| 20260506140315 | 13 | 31 | 11.3 | 24.1 | 0.00 | 0.05 | 0.05 | 62 | 1009.3 |
| 20260506140141 | 13 | 18 | 12.9 | 25.7 | 0.00 | 0.05 | 0.05 | 63 | 1009.2 |
| 20260506135315 | 13 | 71 | 14.5 | 25.7 | 0.00 | 0.05 | 0.05 | 61 | 1009.2 |
| 20260506134816 | 13 | 23 | 14.5 | 25.7 | 0.00 | 0.05 | 0.05 | 64 | 1009.0 |
| 20260506134314 | 14 | 25 | 11.3 | 17.7 | 0.00 | 0.05 | 0.05 | 64 | 1009.1 |
| 20260506133814 | 14 | 41 | 12.9 | 24.1 | 0.00 | 0.05 | 0.05 | 61 | 1009.2 |
| 20260506133314 | 14 | 100 | 12.9 | 24.1 | 0.00 | 0.05 | 0.05 | 60 | 1009.1 |
| 20260506132814 | 14 | 34 | 11.3 | 25.7 | 0.00 | 0.05 | 0.05 | 61 | 1009.1 |
| 20260506132315 | 14 | 44 | 12.9 | 25.7 | 0.00 | 0.05 | 0.05 | 59 | 1009.1 |
| 20260506131814 | 14 | 0 | 9.7 | 24.1 | 0.00 | 0.05 | 0.05 | 61 | 1008.9 |
| 20260506131313 | 15 | 61 | 14.5 | 24.1 | 0.00 | 0.05 | 0.05 | 57 | 1009.0 |
| 20260506130817 | 14 | 51 | 12.9 | 24.1 | 0.00 | 0.05 | 0.05 | 60 | 1008.9 |
| 20260506130405 | 14 | 100 | 9.7 | 24.1 | 0.00 | 0.05 | 0.05 | 57 | 1008.7 |
| 20260506130347 | 15 | 39 | 12.9 | 24.1 | 0.00 | 0.05 | 0.05 | 57 | 1008.7 |
| 20260506125313 | 14 | 21 | 11.3 | 22.5 | 0.00 | 0.05 | 0.05 | 56 | 1008.7 |
| 20260506124813 | 14 | 51 | 8.0 | 17.7 | 0.00 | 0.05 | 0.05 | 57 | 1008.7 |
| 20260506124436 | 14 | 68 | 8.0 | 20.9 | 0.00 | 0.05 | 0.05 | 58 | 1008.7 |
| 20260506124358 | 14 | 37 | 8.0 | 20.9 | 0.00 | 0.05 | 0.05 | 58 | 1008.8 |
| 20260506123314 | 14 | 76 | 11.3 | 20.9 | 0.00 | 0.05 | 0.05 | 55 | 1008.8 |
| 20260506122814 | 14 | 56 | 9.7 | 20.9 | 0.03 | 0.05 | 0.05 | 57 | 1008.7 |
| 20260506122600 | 14 | 0 | 9.7 | 24.1 | 0.03 | 0.05 | 0.05 | 58 | 1008.7 |
| 20260506121811 | 14 | 7 | 9.7 | 24.1 | 0.03 | 0.05 | 0.05 | 59 | 1008.7 |
| 20260506121312 | 14 | 41 | 9.7 | 17.7 | 0.03 | 0.05 | 0.05 | 62 | 1008.7 |
| 20260506120813 | 14 | 37 | 11.3 | 19.3 | 0.03 | 0.05 | 0.05 | 61 | 1008.6 |
| 20260506120313 | 14 | 63 | 9.7 | 19.3 | 0.03 | 0.05 | 0.05 | 61 | 1008.6 |
| 20260506115811 | 14 | 20 | 9.7 | 20.9 | 0.03 | 0.03 | 0.05 | 65 | 1008.6 |
| 20260506115630 | 14 | 73 | 9.7 | 20.9 | 0.03 | 0.03 | 0.05 | 60 | 1008.5 |
| 20260506114811 | 14 | 25 | 11.3 | 17.7 | 0.03 | 0.03 | 0.05 | 62 | 1008.4 |
| 20260506114312 | 14 | 44 | 9.7 | 19.3 | 0.03 | 0.03 | 0.05 | 62 | 1008.5 |
| 20260506113812 | 14 | 41 | 9.7 | 22.5 | 0.03 | 0.03 | 0.05 | 64 | 1008.4 |
| 20260506113311 | 13 | 14 | 12.9 | 24.1 | 0.03 | 0.03 | 0.03 | 65 | 1008.5 |
| 20260506112811 | 13 | 37 | 12.9 | 25.7 | 0.00 | 0.03 | 0.03 | 64 | 1008.4 |
| 20260506112349 | 13 | 38 | 11.3 | 20.9 | 0.00 | 0.03 | 0.03 | 66 | 1008.5 |
| 20260506112335 | 13 | 31 | 11.3 | 25.7 | 0.00 | 0.03 | 0.03 | 63 | 1008.6 |
| 20260506111329 | 13 | 0 | 12.9 | 20.9 | 0.00 | 0.03 | 0.03 | 67 | 1008.5 |
| 20260506111057 | 13 | 20 | 14.5 | 20.9 | 0.00 | 0.03 | 0.03 | 66 | 1008.5 |
| 20260506110313 | 13 | 25 | 11.3 | 20.9 | 0.00 | 0.03 | 0.03 | 68 | 1008.5 |
| 20260506105810 | 13 | 35 | 11.3 | 20.9 | 0.00 | 0.03 | 0.03 | 67 | 1008.7 |
| 20260506105323 | 13 | 10 | 11.3 | 20.9 | 0.00 | 0.03 | 0.03 | 70 | 1008.5 |
| 20260506105155 | 13 | 32 | 8.0 | 22.5 | 0.00 | 0.03 | 0.03 | 69 | 1008.6 |
| 20260506104309 | 13 | 18 | 11.3 | 22.5 | 0.00 | 0.03 | 0.03 | 69 | 1008.4 |
| 20260506103810 | 13 | 18 | 11.3 | 22.5 | 0.00 | 0.03 | 0.03 | 69 | 1008.4 |
| 20260506103310 | 13 | 13 | 9.7 | 20.9 | 0.00 | 0.03 | 0.03 | 67 | 1008.4 |
| 20260506103052 | 13 | 35 | 12.9 | 20.9 | 0.00 | 0.03 | 0.03 | 68 | 1008.5 |
| 20260506102310 | 13 | 23 | 9.7 | 22.5 | 0.00 | 0.03 | 0.03 | 70 | 1008.4 |
| 20260506102052 | 13 | 23 | 9.7 | 22.5 | 0.00 | 0.03 | 0.03 | 72 | 1008.3 |
| 20260506101309 | 13 | 59 | 8.0 | 16.1 | 0.00 | 0.03 | 0.03 | 72 | 1008.3 |
| 20260506100809 | 13 | 0 | 6.4 | 20.9 | 0.00 | 0.03 | 0.03 | 74 | 1008.4 |
| 20260506100309 | 13 | 31 | 11.3 | 20.9 | 0.00 | 0.03 | 0.03 | 74 | 1008.4 |
| 20260506095822 | 13 | 24 | 9.7 | 17.7 | 0.00 | 0.03 | 0.03 | 76 | 1008.2 |
| 20260506095309 | 13 | 7 | 9.7 | 17.7 | 0.00 | 0.03 | 0.03 | 77 | 1008.2 |
| 20260506094808 | 13 | 11 | 12.9 | 17.7 | 0.00 | 0.03 | 0.03 | 77 | 1008.2 |
| 20260506094557 | 12 | 31 | 8.0 | 14.5 | 0.00 | 0.03 | 0.03 | 78 | 1008.3 |
| 20260506093809 | 12 | 7 | 6.4 | 14.5 | 0.00 | 0.03 | 0.03 | 79 | 1008.3 |
| 20260506093307 | 12 | 25 | 8.0 | 20.9 | 0.00 | 0.03 | 0.03 | 80 | 1008.3 |
| 20260506092807 | 12 | 20 | 9.7 | 20.9 | 0.00 | 0.03 | 0.03 | 80 | 1008.2 |
| 20260506092307 | 12 | 10 | 11.3 | 22.5 | 0.00 | 0.03 | 0.03 | 80 | 1008.2 |
| 20260506091813 | 12 | 3 | 12.9 | 22.5 | 0.00 | 0.03 | 0.03 | 80 | 1008.2 |
| 20260506091551 | 12 | 11 | 11.3 | 17.7 | 0.00 | 0.03 | 0.03 | 81 | 1008.3 |
| 20260506090806 | 12 | 31 | 9.7 | 16.1 | 0.00 | 0.03 | 0.03 | 81 | 1008.2 |
| 20260506090307 | 12 | 7 | 8.0 | 16.1 | 0.00 | 0.03 | 0.03 | 82 | 1008.3 |
| 20260506085807 | 12 | 10 | 8.0 | 16.1 | 0.00 | 0.03 | 0.03 | 82 | 1008.2 |
| 20260506085308 | 12 | 24 | 9.7 | 17.7 | 0.00 | 0.03 | 0.03 | 82 | 1008.2 |
| 20260506085049 | 12 | 28 | 8.0 | 17.7 | 0.00 | 0.03 | 0.03 | 82 | 1008.2 |
| 20260506084306 | 11 | 16 | 8.0 | 20.9 | 0.00 | 0.03 | 0.03 | 82 | 1008.1 |
| 20260506084051 | 11 | 42 | 11.3 | 20.9 | 0.00 | 0.03 | 0.03 | 82 | 1008.0 |
| 20260506083308 | 11 | 18 | 9.7 | 16.1 | 0.00 | 0.03 | 0.03 | 83 | 1008.1 |
| 20260506082808 | 11 | 4 | 9.7 | 17.7 | 0.00 | 0.03 | 0.03 | 84 | 1007.9 |
| 20260506082306 | 11 | 31 | 8.0 | 19.3 | 0.00 | 0.03 | 0.03 | 85 | 1008.0 |
| 20260506081806 | 11 | 38 | 6.4 | 19.3 | 0.00 | 0.03 | 0.03 | 85 | 1008.0 |
| 20260506081307 | 11 | 0 | 6.4 | 17.7 | 0.00 | 0.03 | 0.03 | 86 | 1008.1 |
| 20260506080806 | 11 | 18 | 11.3 | 17.7 | 0.00 | 0.03 | 0.03 | 86 | 1008.2 |
| 20260506080307 | 10 | 0 | 6.4 | 16.1 | 0.00 | 0.03 | 0.03 | 87 | 1008.1 |
| 20260506073304 | 10 | 18 | 8.0 | 16.1 | 0.00 | 0.03 | 0.03 | 88 | 1007.9 |
| 20260506072804 | 10 | 11 | 8.0 | 16.1 | 0.00 | 0.03 | 0.03 | 88 | 1007.9 |
| 20260506072305 | 10 | 6 | 8.0 | 16.1 | 0.00 | 0.03 | 0.03 | 89 | 1007.9 |
| 20260506071804 | 10 | 17 | 8.0 | 16.1 | 0.00 | 0.03 | 0.03 | 89 | 1008.0 |
| 20260506071522 | 9 | 0 | 9.7 | 14.5 | 0.00 | 0.03 | 0.03 | 90 | 1008.0 |
| 20260506071412 | 10 | 3 | 9.7 | 16.1 | 0.00 | 0.03 | 0.03 | 89 | 1008.0 |
| 20260506071141 | 10 | 13 | 8.0 | 16.1 | 0.00 | 0.03 | 0.03 | 89 | 1007.9 |